When you browse on this site, cookies collect data to enhance your experience and personalize the content and advertising you see.
Visit our Privacy Policy to learn more. By continuing to use the site, you agree to this use of cookies and data.

Hourly Weather Jewłach

Today, 14 August, Friday

Time Temperature Precipitation Wind Pressure Humidity
00:00 +28°C° 0 mm 2 mps 756 mmHg 44%
01:00 +27°C° 0 mm 2 mps 756 mmHg 45%
02:00 +27°C° 0 mm 1 mps 756 mmHg 47%
03:00 +26°C° 0 mm 1 mps 756 mmHg 48%
04:00 +27°C° 0 mm 1 mps 756 mmHg 48%
05:00 +27°C° 0 mm 1 mps 756 mmHg 49%
06:00 +27°C° 0 mm 1 mps 757 mmHg 50%
07:00 +28°C° 0 mm 2 mps 756 mmHg 47%
08:00 +30°C° 0 mm 2 mps 756 mmHg 44%
09:00 +31°C° 0 mm 3 mps 756 mmHg 41%
10:00 +32°C° 0 mm 2 mps 755 mmHg 39%
11:00 +34°C° 0 mm 2 mps 755 mmHg 36%
12:00 +35°C° 0 mm 2 mps 755 mmHg 34%
13:00 +35°C° 0.1 mm 2 mps 754 mmHg 33%
14:00 +36°C° 0.1 mm 2 mps 754 mmHg 32%
15:00 +36°C° 0.1 mm 2 mps 753 mmHg 30%
16:00 +35°C° 0 mm 3 mps 753 mmHg 34%
17:00 +34°C° 0 mm 3 mps 753 mmHg 38%
18:00 +33°C° 0 mm 3 mps 753 mmHg 42%
19:00 +31°C° 0 mm 3 mps 754 mmHg 44%
20:00 +31°C° 0 mm 3 mps 754 mmHg 46%
21:00 +30°C° 0 mm 3 mps 754 mmHg 47%
22:00 +29°C° 0.1 mm 2 mps 755 mmHg 50%
23:00 +28°C° 0.1 mm 2 mps 755 mmHg 52%

Tomorrow, 15 August, Saturday

Time Temperature Precipitation Wind Pressure Humidity
00:00 +27°C° 0.1 mm 2 mps 755 mmHg 55%
01:00 +27°C° 0 mm 2 mps 755 mmHg 55%
02:00 +27°C° 0 mm 3 mps 755 mmHg 54%
03:00 +27°C° 0 mm 3 mps 754 mmHg 54%
04:00 +27°C° 0 mm 4 mps 755 mmHg 54%
05:00 +27°C° 0 mm 5 mps 755 mmHg 53%
06:00 +26°C° 0 mm 6 mps 755 mmHg 53%
07:00 +27°C° 0 mm 6 mps 755 mmHg 51%
08:00 +27°C° 0 mm 6 mps 755 mmHg 49%
09:00 +28°C° 0 mm 6 mps 756 mmHg 47%
10:00 +29°C° 0.1 mm 5 mps 756 mmHg 45%
11:00 +29°C° 0.1 mm 4 mps 756 mmHg 43%
12:00 +30°C° 0.1 mm 4 mps 756 mmHg 41%
13:00 +30°C° 0 mm 3 mps 756 mmHg 39%
14:00 +31°C° 0 mm 2 mps 756 mmHg 38%
15:00 +31°C° 0 mm 2 mps 756 mmHg 36%
16:00 +30°C° 0 mm 4 mps 756 mmHg 41%
17:00 +29°C° 0 mm 6 mps 756 mmHg 45%
18:00 +28°C° 0 mm 8 mps 756 mmHg 49%
19:00 +28°C° 0 mm 8 mps 757 mmHg 48%
20:00 +27°C° 0 mm 8 mps 757 mmHg 47%
21:00 +27°C° 0 mm 8 mps 758 mmHg 46%
22:00 +26°C° 0 mm 8 mps 758 mmHg 48%
23:00 +26°C° 0 mm 7 mps 758 mmHg 50%

Day after tomorrow, 16 August, Sunday

Time Temperature Precipitation Wind Pressure Humidity
00:00 +24°C° 0 mm 6 mps 758 mmHg 52%
01:00 +25°C° 0 mm 5 mps 758 mmHg 54%
02:00 +23°C° 0 mm 4 mps 758 mmHg 56%
03:00 +24°C° 0 mm 3 mps 758 mmHg 59%
04:00 +24°C° 0 mm 3 mps 758 mmHg 60%
05:00 +24°C° 0 mm 3 mps 758 mmHg 62%
06:00 +24°C° 0 mm 3 mps 758 mmHg 63%
07:00 +24°C° 0 mm 3 mps 758 mmHg 59%
08:00 +25°C° 0 mm 4 mps 758 mmHg 55%
09:00 +26°C° 0 mm 4 mps 758 mmHg 51%
10:00 +28°C° 0 mm 4 mps 758 mmHg 45%
11:00 +29°C° 0 mm 5 mps 758 mmHg 39%
12:00 +32°C° 0 mm 5 mps 758 mmHg 33%
13:00 +32°C° 0 mm 5 mps 757 mmHg 33%
14:00 +33°C° 0 mm 5 mps 757 mmHg 32%
15:00 +33°C° 0 mm 6 mps 757 mmHg 31%
16:00 +33°C° 0 mm 5 mps 756 mmHg 33%
17:00 +32°C° 0 mm 5 mps 756 mmHg 35%
18:00 +30°C° 0 mm 5 mps 756 mmHg 37%
19:00 +29°C° 0 mm 5 mps 757 mmHg 40%
20:00 +28°C° 0 mm 4 mps 757 mmHg 42%
21:00 +27°C° 0 mm 4 mps 758 mmHg 44%
22:00 +26°C° 0 mm 4 mps 757 mmHg 48%
23:00 +25°C° 0 mm 3 mps 757 mmHg 53%

17 August, Monday

Time Temperature Precipitation Wind Pressure Humidity
00:00 +24°C° 0 mm 3 mps 757 mmHg 57%
01:00 +24°C° 0.1 mm 3 mps 757 mmHg 62%
02:00 +22°C° 0.1 mm 3 mps 757 mmHg 67%
03:00 +23°C° 0.1 mm 2 mps 758 mmHg 72%
04:00 +22°C° 0.1 mm 3 mps 758 mmHg 71%
05:00 +22°C° 0.1 mm 3 mps 758 mmHg 71%
06:00 +22°C° 0.1 mm 3 mps 758 mmHg 70%
07:00 +22°C° 0 mm 3 mps 759 mmHg 67%
08:00 +24°C° 0 mm 3 mps 759 mmHg 64%
09:00 +24°C° 0 mm 3 mps 760 mmHg 61%
10:00 +25°C° 0 mm 3 mps 760 mmHg 56%
11:00 +26°C° 0 mm 3 mps 760 mmHg 50%
12:00 +27°C° 0 mm 3 mps 760 mmHg 44%
13:00 +28°C° 0 mm 4 mps 760 mmHg 41%
14:00 +29°C° 0 mm 4 mps 759 mmHg 39%
15:00 +30°C° 0 mm 4 mps 759 mmHg 36%
16:00 +29°C° 0 mm 4 mps 759 mmHg 39%
17:00 +29°C° 0 mm 4 mps 759 mmHg 42%
18:00 +28°C° 0 mm 4 mps 759 mmHg 45%
19:00 +27°C° 0 mm 4 mps 759 mmHg 48%
20:00 +26°C° 0 mm 4 mps 760 mmHg 52%
21:00 +25°C° 0 mm 4 mps 760 mmHg 56%
22:00 +25°C° 0 mm 3 mps 760 mmHg 57%
23:00 +25°C° 0 mm 3 mps 760 mmHg 58%

18 August, Tuesday

Time Temperature Precipitation Wind Pressure Humidity
00:00 +25°C° 0 mm 3 mps 760 mmHg 59%
01:00 +24°C° 0 mm 3 mps 760 mmHg 60%
02:00 +24°C° 0 mm 3 mps 759 mmHg 62%
03:00 +22°C° 0 mm 3 mps 759 mmHg 64%
04:00 +22°C° 0 mm 3 mps 759 mmHg 64%
05:00 +23°C° 0 mm 2 mps 759 mmHg 65%
06:00 +21°C° 0 mm 2 mps 759 mmHg 66%
07:00 +24°C° 0 mm 2 mps 759 mmHg 60%
08:00 +26°C° 0 mm 3 mps 758 mmHg 54%
09:00 +28°C° 0 mm 3 mps 758 mmHg 48%
10:00 +29°C° 0 mm 3 mps 758 mmHg 44%
11:00 +30°C° 0 mm 3 mps 757 mmHg 39%
12:00 +31°C° 0 mm 2 mps 757 mmHg 35%
13:00 +32°C° 0 mm 2 mps 756 mmHg 33%
14:00 +34°C° 0 mm 2 mps 756 mmHg 32%
15:00 +34°C° 0 mm 2 mps 755 mmHg 30%
16:00 +34°C° 0 mm 2 mps 755 mmHg 31%
17:00 +34°C° 0 mm 2 mps 755 mmHg 31%
18:00 +32°C° 0 mm 2 mps 755 mmHg 32%
19:00 +31°C° 0 mm 3 mps 756 mmHg 35%
20:00 +29°C° 0 mm 4 mps 756 mmHg 39%
21:00 +27°C° 0 mm 5 mps 756 mmHg 43%
22:00 +26°C° 0 mm 4 mps 756 mmHg 48%
23:00 +25°C° 0 mm 4 mps 756 mmHg 53%

19 August, Wednesday

Time Temperature Precipitation Wind Pressure Humidity
00:00 +24°C° 0 mm 3 mps 756 mmHg 58%
01:00 +24°C° 0 mm 3 mps 756 mmHg 60%
02:00 +22°C° 0 mm 3 mps 756 mmHg 63%
03:00 +23°C° 0 mm 2 mps 756 mmHg 65%
04:00 +23°C° 0 mm 2 mps 756 mmHg 65%
05:00 +23°C° 0 mm 2 mps 756 mmHg 65%
06:00 +23°C° 0 mm 2 mps 756 mmHg 65%
07:00 +25°C° 0 mm 3 mps 756 mmHg 57%
08:00 +27°C° 0 mm 3 mps 756 mmHg 49%
09:00 +29°C° 0 mm 4 mps 756 mmHg 41%
10:00 +32°C° 0 mm 4 mps 756 mmHg 37%
11:00 +33°C° 0 mm 3 mps 755 mmHg 33%
12:00 +34°C° 0 mm 3 mps 755 mmHg 30%
13:00 +35°C° 0 mm 3 mps 755 mmHg 28%
14:00 +36°C° 0 mm 3 mps 754 mmHg 27%
15:00 +36°C° 0 mm 4 mps 754 mmHg 26%
16:00 +36°C° 0 mm 3 mps 754 mmHg 26%
17:00 +35°C° 0 mm 3 mps 754 mmHg 27%
18:00 +35°C° 0 mm 3 mps 754 mmHg 28%
19:00 +33°C° 0 mm 4 mps 755 mmHg 31%
20:00 +29°C° 0 mm 4 mps 755 mmHg 35%
21:00 +27°C° 0 mm 4 mps 756 mmHg 38%
22:00 +26°C° 0 mm 4 mps 756 mmHg 42%
23:00 +26°C° 0 mm 3 mps 756 mmHg 46%
Show more